Weather History for K8D3 - November, 2010

Change the Weather History Date:

Friday, November 26, 2010

  Actual Average Record
Temperature  
Mean Temperature 20 °F 25 °F  
Max Temperature 28 °F 34 °F 60 °F (1998)
Min Temperature 11 °F 16 °F -14 °F (1996)
Degree Days  
Heating Degree Days 45 40  
Month to date heating degree days 863 859  
Since 1 July heating degree days 1572 1686  
Cooling Degree Days 0 0  
Month to date cooling degree days 0 0  
Year to date cooling degree days 594 527  
Moisture  
Dew Point 17 °F    
Average Humidity 76    
Maximum Humidity 88    
Minimum Humidity 64    
Precipitation  
Precipitation 0.01 in 0.01 in 0.50 in (2001)
Month to date precipitation 0.09 0.55  
Year to date precipitation 23.74 21.91  
Snow  
Snow 0.00 in - - ()
Month to date snowfall 0.4  
Since 1 July snowfall 0.5  
Snow Depth -    
Sea Level Pressure  
Sea Level Pressure 29.95 in    
Wind  
Wind Speed 10 mph (NNW)    
Max Wind Speed 21 mph    
Max Gust Speed 26 mph    
T = Trace of Precipitation, MM = Missing Value Source: NWS Daily Summary

Daily Weather History Graph

Daily Weather History Graph

Search for Another Location

Airport or City:

Trip Planner

Search our weather history database for the weather conditions in past years. The results will help you decide how hot, cold, wet, or windy it might be!

Date:

Astronomy

Nov. 26, 2010 Rise Set
Actual Time 7:42 AM CST 4:48 PM CST
Civil Twilight 7:08 AM CST 5:21 PM CST
Nautical Twilight 6:32 AM CST 5:58 PM CST
Astronomical Twilight 5:56 AM CST 6:33 PM CST
Moon 10:03 PM CST (11/26) 11:45 AM CST (11/26)
Length of Visible Light 10h 12m
Length of Day
9h 05m
Waning Gibbous, 73% of the Moon is Illuminated
Nov 26
Waning Gibbous
Nov 28
Last Quarter
Dec 5
New
Dec 13
First Quarter
Dec 21
Full

Hourly Weather History & Observations

Time (CST) Temp. Windchill Dew Point Humidity Pressure Visibility Wind Dir Wind Speed Gust Speed Precip Events Conditions
12:56 AM 10.9 °F 0.2 °F 3.0 °F 70% 29.86 in - WNW 6.9 mph - N/A   Unknown
1:56 AM 14.0 °F 0.5 °F 3.9 °F 64% 29.86 in - WNW 11.5 mph - N/A   Unknown
2:56 AM 16.0 °F 1.7 °F 6.1 °F 65% 29.86 in - West 13.8 mph - N/A   Unknown
3:56 AM 19.9 °F 7.3 °F 10.0 °F 65% 29.83 in - WNW 12.7 mph - N/A   Unknown
4:56 AM 21.0 °F 9.9 °F 15.1 °F 78% 29.83 in - NW 10.4 mph - N/A   Unknown
5:56 AM 21.9 °F 11.7 °F 16.0 °F 78% 29.84 in - NW 9.2 mph - N/A   Unknown
6:56 AM 23.0 °F 13.1 °F 19.0 °F 85% 29.86 in - NNW 9.2 mph - 0.01 in   Unknown
7:56 AM 21.0 °F 9.9 °F 18.0 °F 88% 29.88 in - NE 10.4 mph - N/A   Unknown
8:56 AM 21.9 °F 11.0 °F 18.0 °F 85% 29.90 in - NNW 10.4 mph - N/A   Unknown
9:56 AM 24.1 °F 15.2 °F 19.0 °F 81% 29.92 in - NNW 8.1 mph - N/A   Unknown
10:56 AM 25.0 °F 14.2 °F 19.9 °F 81% 29.93 in - North 11.5 mph - N/A   Unknown
11:56 AM 26.1 °F 15.6 °F 19.9 °F 78% 29.94 in - North 11.5 mph - N/A   Unknown
12:56 PM 27.0 °F 14.7 °F 19.9 °F 75% 29.95 in - NNW 16.1 mph - N/A   Unknown
1:56 PM 27.0 °F 14.7 °F 19.0 °F 72% 29.98 in - North 16.1 mph - N/A   Unknown
2:56 PM 27.0 °F 14.3 °F 19.9 °F 75% 30.00 in - NNW 17.3 mph 23.0 mph N/A   Unknown
3:56 PM 26.1 °F 13.6 °F 19.9 °F 78% 30.01 in - NNW 16.1 mph 23.0 mph N/A   Unknown
4:56 PM 24.1 °F 13.1 °F 19.0 °F 81% 30.03 in - NNW 11.5 mph - N/A   Unknown
5:56 PM 24.1 °F 13.1 °F 18.0 °F 77% 30.04 in - NNW 11.5 mph - N/A   Unknown
6:56 PM 24.1 °F 14.4 °F 18.0 °F 77% 30.06 in - NNW 9.2 mph - N/A   Unknown
7:56 PM 24.1 °F 18.2 °F 19.0 °F 81% 30.06 in - North 4.6 mph - N/A   Unknown
8:56 PM 24.1 °F 17.0 °F 19.0 °F 81% 30.06 in - North 5.8 mph - N/A   Unknown
9:56 PM 24.1 °F 19.7 °F 19.0 °F 81% 30.06 in - NW 3.5 mph - N/A   Unknown
10:56 PM 24.1 °F - 19.0 °F 81% 30.06 in - Calm Calm - N/A   Unknown
11:56 PM 24.1 °F - 19.9 °F 84% 30.07 in - Calm Calm - N/A   Unknown